Year,Month,Day,Hour,Minute,Value (Times are PST for windgust in km/hr)
2014,10,22,00,00,61.20
2014,10,22,00,01,49.90
2014,10,22,00,02,38.60
2014,10,22,00,03,46.70
2014,10,22,00,04,53.10
2014,10,22,00,05,45.10
2014,10,22,00,06,40.20
2014,10,22,00,07,38.60
2014,10,22,00,08,49.90
2014,10,22,00,09,51.50
2014,10,22,00,10,48.30
2014,10,22,00,11,48.30
2014,10,22,00,12,33.80
2014,10,22,00,13,43.50
2014,10,22,00,14,40.20
2014,10,22,00,15,61.20
2014,10,22,00,16,41.80
2014,10,22,00,17,56.30
2014,10,22,00,18,51.50
2014,10,22,00,19,46.70
2014,10,22,00,20,41.80
2014,10,22,00,21,48.30
2014,10,22,00,22,48.30
2014,10,22,00,23,45.10
2014,10,22,00,24,43.50
2014,10,22,00,25,53.10
2014,10,22,00,26,38.60
2014,10,22,00,27,46.70
2014,10,22,00,28,40.20
2014,10,22,00,29,54.70
2014,10,22,00,30,57.90
2014,10,22,00,31,43.50
2014,10,22,00,32,56.30
2014,10,22,00,33,40.20
2014,10,22,00,34,53.10
2014,10,22,00,35,38.60
2014,10,22,00,36,56.30
2014,10,22,00,37,57.90
2014,10,22,00,38,64.40
2014,10,22,00,39,49.90
2014,10,22,00,40,37.00
2014,10,22,00,41,57.90
2014,10,22,00,42,48.30
2014,10,22,00,43,53.10
2014,10,22,00,44,56.30
2014,10,22,00,45,61.20
2014,10,22,00,46,45.10
2014,10,22,00,47,51.50
2014,10,22,00,48,43.50
2014,10,22,00,49,48.30
2014,10,22,00,50,45.10
2014,10,22,00,51,53.10
2014,10,22,00,52,54.70
2014,10,22,00,53,43.50
2014,10,22,00,54,45.10
2014,10,22,00,55,43.50
2014,10,22,00,56,46.70
2014,10,22,00,57,45.10
2014,10,22,00,58,41.80
2014,10,22,00,59,27.40
2014,10,22,01,00,49.90
2014,10,22,01,01,32.20
2014,10,22,01,02,48.30
2014,10,22,01,03,33.80
2014,10,22,01,04,49.90
2014,10,22,01,05,51.50
2014,10,22,01,06,49.90
2014,10,22,01,07,51.50
2014,10,22,01,08,45.10
2014,10,22,01,09,33.80
2014,10,22,01,10,49.90
2014,10,22,01,11,49.90
2014,10,22,01,12,53.10
2014,10,22,01,13,48.30
2014,10,22,01,14,38.60
2014,10,22,01,15,46.70
2014,10,22,01,16,48.30
2014,10,22,01,17,54.70
2014,10,22,01,18,49.90
2014,10,22,01,19,56.30
2014,10,22,01,20,49.90
2014,10,22,01,21,40.20
2014,10,22,01,22,37.00
2014,10,22,01,23,29.00
2014,10,22,01,24,38.60
2014,10,22,01,25,45.10
2014,10,22,01,26,29.00
2014,10,22,01,27,45.10
2014,10,22,01,28,59.50
2014,10,22,01,29,46.70
2014,10,22,01,30,32.20
2014,10,22,01,31,46.70
2014,10,22,01,32,35.40
2014,10,22,01,33,30.60
2014,10,22,01,34,40.20
2014,10,22,01,35,54.70
2014,10,22,01,36,43.50
2014,10,22,01,37,35.40
2014,10,22,01,38,53.10
2014,10,22,01,39,30.60
2014,10,22,01,40,40.20
2014,10,22,01,41,38.60
2014,10,22,01,42,48.30
2014,10,22,01,43,35.40
2014,10,22,01,44,30.60
2014,10,22,01,45,46.70
2014,10,22,01,46,37.00
2014,10,22,01,47,30.60
2014,10,22,01,48,29.00
2014,10,22,01,49,30.60
2014,10,22,01,50,37.00
2014,10,22,01,51,27.40
2014,10,22,01,52,35.40
2014,10,22,01,53,38.60
2014,10,22,01,54,29.00
2014,10,22,01,55,33.80
2014,10,22,01,56,29.00
2014,10,22,01,57,48.30
2014,10,22,01,58,33.80
2014,10,22,01,59,41.80
2014,10,22,02,00,32.20
2014,10,22,02,01,41.80
2014,10,22,02,02,38.60
2014,10,22,02,03,35.40
2014,10,22,02,04,32.20
2014,10,22,02,05,33.80
2014,10,22,02,06,25.70
2014,10,22,02,07,35.40
2014,10,22,02,08,29.00
2014,10,22,02,09,19.30
2014,10,22,02,10,35.40
2014,10,22,02,11,30.60
2014,10,22,02,12,38.60
2014,10,22,02,13,37.00
2014,10,22,02,14,32.20
2014,10,22,02,15,40.20
2014,10,22,02,16,46.70
2014,10,22,02,17,38.60
2014,10,22,02,18,33.80
2014,10,22,02,19,29.00
2014,10,22,02,20,41.80
2014,10,22,02,21,33.80
2014,10,22,02,22,32.20
2014,10,22,02,23,32.20
2014,10,22,02,24,46.70
2014,10,22,02,25,22.50
2014,10,22,02,26,29.00
2014,10,22,02,27,20.90
2014,10,22,02,28,32.20
2014,10,22,02,29,33.80
2014,10,22,02,30,41.80
2014,10,22,02,31,27.40
2014,10,22,02,32,43.50
2014,10,22,02,33,33.80
2014,10,22,02,34,35.40
2014,10,22,02,35,32.20
2014,10,22,02,36,25.70
2014,10,22,02,37,41.80
2014,10,22,02,38,27.40
2014,10,22,02,39,38.60
2014,10,22,02,40,27.40
2014,10,22,02,41,29.00
2014,10,22,02,42,30.60
2014,10,22,02,43,32.20
2014,10,22,02,44,27.40
2014,10,22,02,45,35.40
2014,10,22,02,46,51.50
2014,10,22,02,47,32.20
2014,10,22,02,48,24.20
2014,10,22,02,49,27.40
2014,10,22,02,50,25.70
2014,10,22,02,51,29.00
2014,10,22,02,52,20.90
2014,10,22,02,53,12.90
2014,10,22,02,54,22.50
2014,10,22,02,55,24.20
2014,10,22,02,56,19.30
2014,10,22,02,57,17.70
2014,10,22,02,58,29.00
2014,10,22,02,59,25.70
2014,10,22,03,00,27.40
2014,10,22,03,01,20.90
2014,10,22,03,02,17.70
2014,10,22,03,03,24.20
2014,10,22,03,04,24.20
2014,10,22,03,05,22.50
2014,10,22,03,06,25.70
2014,10,22,03,07,32.20
2014,10,22,03,08,20.90
2014,10,22,03,09,17.70
2014,10,22,03,10,19.30
2014,10,22,03,11,24.20
2014,10,22,03,12,12.90
2014,10,22,03,13,20.90
2014,10,22,03,14,25.70
2014,10,22,03,15,22.50
2014,10,22,03,16,14.50
2014,10,22,03,17,19.30
2014,10,22,03,18,25.70
2014,10,22,03,19,22.50
2014,10,22,03,20,24.20
2014,10,22,03,21,20.90
2014,10,22,03,22,17.70
2014,10,22,03,23,16.10
2014,10,22,03,24,19.30
2014,10,22,03,25,33.80
2014,10,22,03,26,27.40
2014,10,22,03,27,16.10
2014,10,22,03,28,24.20
2014,10,22,03,29,17.70
2014,10,22,03,30,16.10
2014,10,22,03,31,16.10
2014,10,22,03,32,11.30
2014,10,22,03,33,19.30
2014,10,22,03,34,17.70
2014,10,22,03,35,11.30
2014,10,22,03,36,16.10
2014,10,22,03,37,12.90
2014,10,22,03,38,12.90
2014,10,22,03,39,20.90
2014,10,22,03,40,14.50
2014,10,22,03,41,11.30
2014,10,22,03,42,11.30
2014,10,22,03,43,6.40
2014,10,22,03,44,6.40
2014,10,22,03,45,4.80
2014,10,22,03,46,9.60
2014,10,22,03,47,11.30
2014,10,22,03,48,11.30
2014,10,22,03,49,11.30
2014,10,22,03,50,9.60
2014,10,22,03,51,8.10
2014,10,22,03,52,6.40
2014,10,22,03,53,6.40
2014,10,22,03,54,4.80
2014,10,22,03,55,6.40
2014,10,22,03,56,6.40
2014,10,22,03,57,4.80
2014,10,22,03,58,8.10
2014,10,22,03,59,9.60
2014,10,22,04,00,6.40
2014,10,22,04,01,6.40
2014,10,22,04,02,6.40
2014,10,22,04,03,6.40
2014,10,22,04,04,4.80
2014,10,22,04,05,4.80
2014,10,22,04,06,6.40
2014,10,22,04,07,4.80
2014,10,22,04,08,4.80
2014,10,22,04,09,4.80
2014,10,22,04,10,8.10
2014,10,22,04,11,6.40
2014,10,22,04,12,4.80
2014,10,22,04,13,6.40
2014,10,22,04,14,6.40
2014,10,22,04,15,3.20
2014,10,22,04,16,3.20
2014,10,22,04,17,3.20
2014,10,22,04,18,4.80
2014,10,22,04,19,4.80
2014,10,22,04,20,4.80
2014,10,22,04,21,4.80
2014,10,22,04,22,4.80
2014,10,22,04,23,4.80
2014,10,22,04,24,3.20
2014,10,22,04,25,3.20
2014,10,22,04,26,3.20
2014,10,22,04,27,4.80
2014,10,22,04,28,4.80
2014,10,22,04,29,3.20
2014,10,22,04,30,3.20
2014,10,22,04,31,3.20
2014,10,22,04,32,3.20
2014,10,22,04,33,4.80
2014,10,22,04,34,4.80
2014,10,22,04,35,6.40
2014,10,22,04,36,4.80
2014,10,22,04,37,4.80
2014,10,22,04,38,6.40
2014,10,22,04,39,6.40
2014,10,22,04,40,4.80
2014,10,22,04,41,6.40
2014,10,22,04,42,8.10
2014,10,22,04,43,8.10
2014,10,22,04,44,6.40
2014,10,22,04,45,8.10
2014,10,22,04,46,6.40
2014,10,22,04,47,6.40
2014,10,22,04,48,6.40
2014,10,22,04,49,4.80
2014,10,22,04,50,4.80
2014,10,22,04,51,4.80
2014,10,22,04,52,4.80
2014,10,22,04,53,4.80
2014,10,22,04,54,4.80
2014,10,22,04,55,4.80
2014,10,22,04,56,4.80
2014,10,22,04,57,4.80
2014,10,22,04,58,4.80
2014,10,22,04,59,4.80
2014,10,22,05,00,4.80
2014,10,22,05,01,6.40
2014,10,22,05,02,6.40
2014,10,22,05,03,6.40
2014,10,22,05,04,6.40
2014,10,22,05,05,6.40
2014,10,22,05,06,4.80
2014,10,22,05,07,4.80
2014,10,22,05,08,3.20
2014,10,22,05,09,3.20
2014,10,22,05,10,3.20
2014,10,22,05,11,3.20
2014,10,22,05,12,3.20
2014,10,22,05,13,3.20
2014,10,22,05,14,3.20
2014,10,22,05,15,4.80
2014,10,22,05,16,4.80
2014,10,22,05,17,3.20
2014,10,22,05,18,1.60
2014,10,22,05,19,3.20
2014,10,22,05,20,4.80
2014,10,22,05,21,4.80
2014,10,22,05,22,6.40
2014,10,22,05,23,6.40
2014,10,22,05,24,6.40
2014,10,22,05,25,6.40
2014,10,22,05,26,4.80
2014,10,22,05,27,8.10
2014,10,22,05,28,8.10
2014,10,22,05,29,9.60
2014,10,22,05,30,9.60
2014,10,22,05,31,4.80
2014,10,22,05,32,4.80
2014,10,22,05,33,6.40
2014,10,22,05,34,3.20
2014,10,22,05,35,3.20
2014,10,22,05,36,3.20
2014,10,22,05,37,4.80
2014,10,22,05,38,1.60
2014,10,22,05,39,3.20
2014,10,22,05,40,3.20
2014,10,22,05,41,4.80
2014,10,22,05,42,4.80
2014,10,22,05,43,3.20
2014,10,22,05,44,3.20
2014,10,22,05,45,4.80
2014,10,22,05,46,3.20
2014,10,22,05,47,4.80
2014,10,22,05,48,4.80
2014,10,22,05,49,3.20
2014,10,22,05,50,1.60
2014,10,22,05,51,1.60
2014,10,22,05,52,3.20
2014,10,22,05,53,3.20
2014,10,22,05,54,3.20
2014,10,22,05,55,3.20
2014,10,22,05,56,4.80
2014,10,22,05,57,4.80
2014,10,22,05,58,6.40
2014,10,22,05,59,4.80
2014,10,22,06,00,3.20
2014,10,22,06,01,1.60
2014,10,22,06,02,1.60
2014,10,22,06,03,1.60
2014,10,22,06,04,3.20
2014,10,22,06,05,3.20
2014,10,22,06,06,3.20
2014,10,22,06,07,4.80
2014,10,22,06,08,4.80
2014,10,22,06,09,3.20
2014,10,22,06,10,3.20
2014,10,22,06,11,4.80
2014,10,22,06,12,4.80
2014,10,22,06,13,4.80
2014,10,22,06,14,3.20
2014,10,22,06,15,1.60
2014,10,22,06,16,1.60
2014,10,22,06,17,3.20
2014,10,22,06,18,4.80
2014,10,22,06,19,4.80
2014,10,22,06,20,4.80
2014,10,22,06,21,4.80
2014,10,22,06,22,6.40
2014,10,22,06,23,6.40
2014,10,22,06,24,4.80
2014,10,22,06,25,4.80
2014,10,22,06,26,4.80
2014,10,22,06,27,3.20
2014,10,22,06,28,3.20
2014,10,22,06,29,3.20
2014,10,22,06,30,3.20
2014,10,22,06,31,4.80
2014,10,22,06,32,3.20
2014,10,22,06,33,3.20
2014,10,22,06,34,3.20
2014,10,22,06,35,3.20
2014,10,22,06,36,3.20
2014,10,22,06,37,1.60
2014,10,22,06,38,1.60
2014,10,22,06,39,1.60
2014,10,22,06,40,1.60
2014,10,22,06,41,3.20
2014,10,22,06,42,3.20
2014,10,22,06,43,1.60
2014,10,22,06,44,3.20
2014,10,22,06,45,4.80
2014,10,22,06,46,4.80
2014,10,22,06,47,4.80
2014,10,22,06,48,4.80
2014,10,22,06,49,4.80
2014,10,22,06,50,3.20
2014,10,22,06,51,3.20
2014,10,22,06,52,3.20
2014,10,22,06,53,3.20
2014,10,22,06,54,3.20
2014,10,22,06,55,3.20
2014,10,22,06,56,4.80
2014,10,22,06,57,3.20
2014,10,22,06,58,3.20
2014,10,22,06,59,3.20
2014,10,22,07,00,4.80
2014,10,22,07,01,6.40
2014,10,22,07,02,4.80
2014,10,22,07,03,4.80
2014,10,22,07,04,4.80
2014,10,22,07,05,4.80
2014,10,22,07,06,4.80
2014,10,22,07,07,4.80
2014,10,22,07,08,6.40
2014,10,22,07,09,6.40
2014,10,22,07,10,6.40
2014,10,22,07,11,6.40
2014,10,22,07,12,6.40
2014,10,22,07,13,6.40
2014,10,22,07,14,4.80
2014,10,22,07,15,3.20
2014,10,22,07,16,4.80
2014,10,22,07,17,6.40
2014,10,22,07,18,4.80
2014,10,22,07,19,4.80
2014,10,22,07,20,8.10
2014,10,22,07,21,8.10
2014,10,22,07,22,6.40
2014,10,22,07,23,8.10
2014,10,22,07,24,6.40
2014,10,22,07,25,3.20
2014,10,22,07,26,6.40
2014,10,22,07,27,4.80
2014,10,22,07,28,4.80
2014,10,22,07,29,4.80
2014,10,22,07,30,4.80
2014,10,22,07,31,3.20
2014,10,22,07,32,4.80
2014,10,22,07,33,4.80
2014,10,22,07,34,1.60
2014,10,22,07,35,6.40
2014,10,22,07,36,4.80
2014,10,22,07,37,1.60
2014,10,22,07,38,1.60
2014,10,22,07,39,1.60
2014,10,22,07,40,1.60
2014,10,22,07,41,3.20
2014,10,22,07,42,4.80
2014,10,22,07,43,4.80
2014,10,22,07,44,4.80
2014,10,22,07,45,4.80
2014,10,22,07,46,3.20
2014,10,22,07,47,3.20
2014,10,22,07,48,1.60
2014,10,22,07,49,4.80
2014,10,22,07,50,6.40
2014,10,22,07,51,4.80
2014,10,22,07,52,3.20
2014,10,22,07,53,4.80
2014,10,22,07,54,6.40
2014,10,22,07,55,6.40
2014,10,22,07,56,4.80
2014,10,22,07,57,6.40
2014,10,22,07,58,6.40
2014,10,22,07,59,9.60
2014,10,22,08,00,6.40
2014,10,22,08,01,8.10
2014,10,22,08,02,9.60
2014,10,22,08,03,4.80
2014,10,22,08,04,6.40
2014,10,22,08,05,3.20
2014,10,22,08,06,4.80
2014,10,22,08,07,4.80
2014,10,22,08,08,4.80
2014,10,22,08,09,4.80
2014,10,22,08,10,4.80
2014,10,22,08,11,6.40
2014,10,22,08,12,4.80
2014,10,22,08,13,4.80
2014,10,22,08,14,4.80
2014,10,22,08,15,6.40
2014,10,22,08,16,4.80
2014,10,22,08,17,6.40
2014,10,22,08,18,8.10
2014,10,22,08,19,6.40
2014,10,22,08,20,8.10
2014,10,22,08,21,8.10
2014,10,22,08,22,6.40
2014,10,22,08,23,6.40
2014,10,22,08,24,6.40
2014,10,22,08,25,8.10
2014,10,22,08,26,8.10
2014,10,22,08,27,8.10
2014,10,22,08,28,9.60
2014,10,22,08,29,11.30
2014,10,22,08,30,8.10
2014,10,22,08,31,6.40
2014,10,22,08,32,6.40
2014,10,22,08,33,6.40
2014,10,22,08,34,6.40
2014,10,22,08,35,4.80
2014,10,22,08,36,4.80
2014,10,22,08,37,3.20
2014,10,22,08,38,4.80
2014,10,22,08,39,3.20
2014,10,22,08,40,3.20
2014,10,22,08,41,1.60
2014,10,22,08,42,1.60
2014,10,22,08,43,1.60
2014,10,22,08,44,1.60
2014,10,22,08,45,1.60
2014,10,22,08,46,1.60
2014,10,22,08,47,3.20
2014,10,22,08,48,3.20
2014,10,22,08,49,3.20
2014,10,22,08,50,1.60
2014,10,22,08,51,1.60
2014,10,22,08,52,1.60
2014,10,22,08,53,1.60
2014,10,22,08,54,1.60
2014,10,22,08,55,1.60
2014,10,22,08,56,1.60
2014,10,22,08,57,1.60
2014,10,22,08,58,3.20
2014,10,22,08,59,4.80
2014,10,22,09,00,4.80
2014,10,22,09,01,4.80
2014,10,22,09,02,4.80
2014,10,22,09,03,4.80
2014,10,22,09,04,4.80
2014,10,22,09,05,4.80
2014,10,22,09,06,3.20
2014,10,22,09,07,3.20
2014,10,22,09,08,1.60
2014,10,22,09,09,1.60
2014,10,22,09,10,1.60
2014,10,22,09,11,1.60
2014,10,22,09,12,1.60
2014,10,22,09,13,1.60
2014,10,22,09,14,1.60
2014,10,22,09,15,1.60
2014,10,22,09,16,1.60
2014,10,22,09,17,3.20
2014,10,22,09,18,3.20
2014,10,22,09,19,3.20
2014,10,22,09,20,4.80
2014,10,22,09,21,4.80
2014,10,22,09,22,3.20
2014,10,22,09,23,3.20
2014,10,22,09,24,4.80
2014,10,22,09,25,4.80
2014,10,22,09,26,4.80
2014,10,22,09,27,6.40
2014,10,22,09,28,6.40
2014,10,22,09,29,4.80
2014,10,22,09,30,4.80
2014,10,22,09,31,6.40
2014,10,22,09,32,4.80
2014,10,22,09,33,4.80
2014,10,22,09,34,4.80
2014,10,22,09,35,1.60
2014,10,22,09,36,3.20
2014,10,22,09,37,4.80
2014,10,22,09,38,6.40
2014,10,22,09,39,8.10
2014,10,22,09,40,8.10
2014,10,22,09,41,6.40
2014,10,22,09,42,9.60
2014,10,22,09,43,6.40
2014,10,22,09,44,4.80
2014,10,22,09,45,6.40
2014,10,22,09,46,6.40
2014,10,22,09,47,6.40
2014,10,22,09,48,4.80
2014,10,22,09,49,6.40
2014,10,22,09,50,4.80
2014,10,22,09,51,6.40
2014,10,22,09,52,8.10
2014,10,22,09,53,8.10
2014,10,22,09,54,8.10
2014,10,22,09,55,6.40
2014,10,22,09,56,4.80
2014,10,22,09,57,4.80
2014,10,22,09,58,4.80
2014,10,22,09,59,4.80
2014,10,22,10,00,6.40
2014,10,22,10,01,6.40
2014,10,22,10,02,6.40
2014,10,22,10,03,6.40
2014,10,22,10,04,8.10
2014,10,22,10,05,6.40
2014,10,22,10,06,8.10
2014,10,22,10,07,8.10
2014,10,22,10,08,9.60
2014,10,22,10,09,9.60
2014,10,22,10,10,9.60
2014,10,22,10,11,9.60
2014,10,22,10,12,11.30
2014,10,22,10,13,11.30
2014,10,22,10,14,11.30
2014,10,22,10,15,9.60
2014,10,22,10,16,8.10
2014,10,22,10,17,11.30
2014,10,22,10,18,9.60
2014,10,22,10,19,8.10
2014,10,22,10,20,11.30
2014,10,22,10,21,8.10
2014,10,22,10,22,9.60
2014,10,22,10,23,8.10
2014,10,22,10,24,8.10
2014,10,22,10,25,6.40
2014,10,22,10,26,8.10
2014,10,22,10,27,8.10
2014,10,22,10,28,8.10
2014,10,22,10,29,9.60
2014,10,22,10,30,12.90
2014,10,22,10,31,9.60
2014,10,22,10,32,9.60
2014,10,22,10,33,11.30
2014,10,22,10,34,4.80
2014,10,22,10,35,6.40
2014,10,22,10,36,9.60
2014,10,22,10,37,8.10
2014,10,22,10,38,8.10
2014,10,22,10,39,6.40
2014,10,22,10,40,8.10
2014,10,22,10,41,8.10
2014,10,22,10,42,8.10
2014,10,22,10,43,8.10
2014,10,22,10,44,9.60
2014,10,22,10,45,9.60
2014,10,22,10,46,8.10
2014,10,22,10,47,6.40
2014,10,22,10,48,9.60
2014,10,22,10,49,8.10
2014,10,22,10,50,8.10
2014,10,22,10,51,6.40
2014,10,22,10,52,9.60
2014,10,22,10,53,8.10
2014,10,22,10,54,6.40
2014,10,22,10,55,8.10
2014,10,22,10,56,8.10
2014,10,22,10,57,6.40
2014,10,22,10,58,4.80
2014,10,22,10,59,6.40
2014,10,22,11,00,4.80
2014,10,22,11,01,1.60
2014,10,22,11,02,3.20
2014,10,22,11,03,6.40
2014,10,22,11,04,3.20
2014,10,22,11,05,6.40
2014,10,22,11,06,4.80
2014,10,22,11,07,6.40
2014,10,22,11,08,4.80
2014,10,22,11,09,3.20
2014,10,22,11,10,3.20
2014,10,22,11,11,3.20
2014,10,22,11,12,6.40
2014,10,22,11,13,6.40
2014,10,22,11,14,4.80
2014,10,22,11,15,9.60
2014,10,22,11,16,9.60
2014,10,22,11,17,8.10
2014,10,22,11,18,6.40
2014,10,22,11,19,4.80
2014,10,22,11,20,4.80
2014,10,22,11,21,4.80
2014,10,22,11,22,4.80
2014,10,22,11,23,6.40
2014,10,22,11,24,4.80
2014,10,22,11,25,4.80
2014,10,22,11,26,6.40
2014,10,22,11,27,4.80
2014,10,22,11,28,3.20
2014,10,22,11,29,3.20
2014,10,22,11,30,3.20
2014,10,22,11,31,3.20
2014,10,22,11,32,3.20
2014,10,22,11,33,3.20
2014,10,22,11,34,4.80
2014,10,22,11,35,4.80
2014,10,22,11,36,4.80
2014,10,22,11,37,3.20
2014,10,22,11,38,3.20
2014,10,22,11,39,3.20
2014,10,22,11,40,3.20
2014,10,22,11,41,3.20
2014,10,22,11,42,3.20
2014,10,22,11,43,3.20
2014,10,22,11,44,4.80
2014,10,22,11,45,4.80
2014,10,22,11,46,4.80
2014,10,22,11,47,4.80
2014,10,22,11,48,4.80
2014,10,22,11,49,4.80
2014,10,22,11,50,4.80
2014,10,22,11,51,4.80
2014,10,22,11,52,4.80
2014,10,22,11,53,6.40
2014,10,22,11,54,4.80
2014,10,22,11,55,6.40
2014,10,22,11,56,6.40
2014,10,22,11,57,4.80
2014,10,22,11,58,4.80
2014,10,22,11,59,4.80
2014,10,22,12,00,4.80
2014,10,22,12,01,6.40
2014,10,22,12,02,4.80
2014,10,22,12,03,3.20
2014,10,22,12,04,4.80
2014,10,22,12,05,3.20
2014,10,22,12,06,1.60
2014,10,22,12,07,4.80
2014,10,22,12,08,3.20
2014,10,22,12,09,4.80
2014,10,22,12,10,4.80
2014,10,22,12,11,4.80
2014,10,22,12,12,4.80
2014,10,22,12,13,3.20
2014,10,22,12,14,3.20
2014,10,22,12,15,4.80
2014,10,22,12,16,6.40
2014,10,22,12,17,6.40
2014,10,22,12,18,6.40
2014,10,22,12,19,6.40
2014,10,22,12,20,6.40
2014,10,22,12,21,4.80
2014,10,22,12,22,3.20
2014,10,22,12,23,6.40
2014,10,22,12,24,6.40
2014,10,22,12,25,4.80
2014,10,22,12,26,6.40
2014,10,22,12,27,6.40
2014,10,22,12,28,6.40
2014,10,22,12,29,8.10
2014,10,22,12,30,8.10
2014,10,22,12,31,6.40
2014,10,22,12,32,8.10
2014,10,22,12,33,11.30
2014,10,22,12,34,9.60
2014,10,22,12,35,6.40
2014,10,22,12,36,9.60
2014,10,22,12,37,9.60
2014,10,22,12,38,6.40
2014,10,22,12,39,8.10
2014,10,22,12,40,8.10
2014,10,22,12,41,6.40
2014,10,22,12,42,8.10
2014,10,22,12,43,8.10
2014,10,22,12,44,6.40
2014,10,22,12,45,8.10
2014,10,22,12,46,4.80
2014,10,22,12,47,4.80
2014,10,22,12,48,4.80
2014,10,22,12,49,3.20
2014,10,22,12,50,1.60
2014,10,22,12,51,1.60
2014,10,22,12,53,1.60
2014,10,22,12,54,1.60
2014,10,22,12,55,3.20
2014,10,22,12,56,3.20
2014,10,22,12,57,3.20
2014,10,22,12,58,4.80
2014,10,22,12,59,1.60
2014,10,22,13,00,3.20
2014,10,22,13,01,3.20
2014,10,22,13,02,1.60
2014,10,22,13,03,1.60
2014,10,22,13,04,1.60
2014,10,22,13,05,3.20
2014,10,22,13,06,1.60
2014,10,22,13,07,3.20
2014,10,22,13,08,3.20
2014,10,22,13,09,4.80
2014,10,22,13,10,4.80
2014,10,22,13,11,3.20
2014,10,22,13,12,4.80
2014,10,22,13,13,4.80
2014,10,22,13,14,4.80
2014,10,22,13,15,3.20
2014,10,22,13,16,1.60
2014,10,22,13,17,1.60
2014,10,22,13,19,1.60
2014,10,22,13,20,1.60
2014,10,22,13,21,1.60
2014,10,22,13,22,1.60
2014,10,22,13,23,1.60
2014,10,22,13,24,1.60
2014,10,22,13,25,1.60
2014,10,22,13,26,1.60
2014,10,22,13,27,3.20
2014,10,22,13,28,1.60
2014,10,22,13,29,1.60
2014,10,22,13,30,1.60
2014,10,22,13,31,3.20
2014,10,22,13,32,1.60
2014,10,22,13,33,1.60
2014,10,22,13,34,1.60
2014,10,22,13,35,1.60
2014,10,22,13,36,3.20
2014,10,22,13,37,3.20
2014,10,22,13,38,3.20
2014,10,22,13,39,3.20
2014,10,22,13,40,3.20
2014,10,22,13,41,3.20
2014,10,22,13,42,1.60
2014,10,22,13,43,1.60
2014,10,22,13,44,1.60
2014,10,22,13,45,3.20
2014,10,22,13,46,9.60
2014,10,22,13,47,8.10
2014,10,22,13,48,4.80
2014,10,22,13,49,4.80
2014,10,22,13,50,4.80
2014,10,22,13,51,4.80
2014,10,22,13,52,4.80
2014,10,22,13,53,6.40
2014,10,22,13,54,4.80
2014,10,22,13,55,6.40
2014,10,22,13,56,4.80
2014,10,22,13,57,4.80
2014,10,22,13,58,6.40
2014,10,22,13,59,4.80
2014,10,22,14,00,3.20
2014,10,22,14,01,4.80
2014,10,22,14,02,3.20
2014,10,22,14,03,1.60
2014,10,22,14,04,3.20
2014,10,22,14,05,3.20
2014,10,22,14,06,1.60
2014,10,22,14,07,1.60
2014,10,22,14,08,1.60
2014,10,22,14,09,1.60
2014,10,22,14,10,1.60
2014,10,22,14,11,3.20
2014,10,22,14,12,4.80
2014,10,22,14,13,3.20
2014,10,22,14,14,3.20
2014,10,22,14,15,4.80
2014,10,22,14,16,4.80
2014,10,22,14,17,4.80
2014,10,22,14,18,3.20
2014,10,22,14,19,1.60
2014,10,22,14,20,3.20
2014,10,22,14,21,3.20
2014,10,22,14,22,4.80
2014,10,22,14,23,4.80
2014,10,22,14,24,3.20
2014,10,22,14,25,4.80
2014,10,22,14,26,4.80
2014,10,22,14,27,1.60
2014,10,22,14,28,4.80
2014,10,22,14,29,3.20
2014,10,22,14,30,3.20
2014,10,22,14,31,3.20
2014,10,22,14,32,3.20
2014,10,22,14,33,4.80
2014,10,22,14,34,6.40
2014,10,22,14,35,3.20
2014,10,22,14,36,3.20
2014,10,22,14,37,4.80
2014,10,22,14,38,8.10
2014,10,22,14,39,6.40
2014,10,22,14,40,6.40
2014,10,22,14,41,6.40
2014,10,22,14,42,6.40
2014,10,22,14,43,8.10
2014,10,22,14,44,8.10
2014,10,22,14,45,8.10
2014,10,22,14,46,6.40
2014,10,22,14,47,4.80
2014,10,22,14,48,4.80
2014,10,22,14,49,4.80
2014,10,22,14,50,9.60
2014,10,22,14,51,8.10
2014,10,22,14,52,6.40
2014,10,22,14,53,8.10
2014,10,22,14,54,6.40
2014,10,22,14,55,4.80
2014,10,22,14,56,4.80
2014,10,22,14,57,6.40
2014,10,22,14,58,8.10
2014,10,22,14,59,3.20
2014,10,22,15,00,3.20
2014,10,22,15,01,6.40
2014,10,22,15,02,8.10
2014,10,22,15,03,4.80
2014,10,22,15,04,6.40
2014,10,22,15,05,6.40
2014,10,22,15,06,6.40
2014,10,22,15,07,8.10
2014,10,22,15,08,6.40
2014,10,22,15,09,4.80
2014,10,22,15,10,8.10
2014,10,22,15,11,6.40
2014,10,22,15,12,6.40
2014,10,22,15,13,9.60
2014,10,22,15,14,9.60
2014,10,22,15,15,11.30
2014,10,22,15,16,8.10
2014,10,22,15,17,6.40
2014,10,22,15,18,6.40
2014,10,22,15,19,4.80
2014,10,22,15,20,4.80
2014,10,22,15,21,6.40
2014,10,22,15,22,4.80
2014,10,22,15,23,9.60
2014,10,22,15,24,8.10
2014,10,22,15,25,4.80
2014,10,22,15,26,4.80
2014,10,22,15,27,9.60
2014,10,22,15,28,4.80
2014,10,22,15,29,9.60
2014,10,22,15,30,4.80
2014,10,22,15,31,3.20
2014,10,22,15,32,3.20
2014,10,22,15,33,6.40
2014,10,22,15,34,4.80
2014,10,22,15,35,4.80
2014,10,22,15,36,4.80
2014,10,22,15,37,1.60
2014,10,22,15,38,4.80
2014,10,22,15,39,6.40
2014,10,22,15,40,4.80
2014,10,22,15,41,3.20
2014,10,22,15,42,4.80
2014,10,22,15,43,3.20
2014,10,22,15,44,4.80
2014,10,22,15,45,3.20
2014,10,22,15,46,4.80
2014,10,22,15,47,1.60
2014,10,22,15,48,6.40
2014,10,22,15,49,8.10
2014,10,22,15,50,4.80
2014,10,22,15,51,1.60
2014,10,22,15,52,1.60
2014,10,22,15,53,1.60
2014,10,22,15,54,3.20
2014,10,22,15,55,1.60
2014,10,22,15,56,3.20
2014,10,22,15,57,3.20
2014,10,22,15,58,3.20
2014,10,22,15,59,4.80
2014,10,22,16,00,4.80
2014,10,22,16,01,1.60
2014,10,22,16,02,3.20
2014,10,22,16,03,1.60
2014,10,22,16,04,3.20
2014,10,22,16,05,3.20
2014,10,22,16,06,3.20
2014,10,22,16,07,3.20
2014,10,22,16,08,3.20
2014,10,22,16,09,4.80
2014,10,22,16,10,3.20
2014,10,22,16,11,3.20
2014,10,22,16,12,4.80
2014,10,22,16,13,6.40
2014,10,22,16,14,8.10
2014,10,22,16,15,3.20
2014,10,22,16,16,6.40
2014,10,22,16,17,12.90
2014,10,22,16,18,9.60
2014,10,22,16,19,11.30
2014,10,22,16,20,8.10
2014,10,22,16,21,9.60
2014,10,22,16,22,6.40
2014,10,22,16,23,8.10
2014,10,22,16,24,11.30
2014,10,22,16,25,11.30
2014,10,22,16,26,11.30
2014,10,22,16,27,6.40
2014,10,22,16,28,12.90
2014,10,22,16,29,11.30
2014,10,22,16,30,3.20
2014,10,22,16,31,6.40
2014,10,22,16,32,4.80
2014,10,22,16,33,8.10
2014,10,22,16,34,9.60
2014,10,22,16,35,11.30
2014,10,22,16,36,8.10
2014,10,22,16,37,4.80
2014,10,22,16,38,4.80
2014,10,22,16,39,3.20
2014,10,22,16,40,1.60
2014,10,22,16,41,3.20
2014,10,22,16,42,1.60
2014,10,22,16,43,3.20
2014,10,22,16,44,3.20
2014,10,22,16,45,4.80
2014,10,22,16,46,4.80
2014,10,22,16,47,3.20
2014,10,22,16,48,1.60
2014,10,22,16,49,1.60
2014,10,22,16,50,1.60
2014,10,22,16,51,3.20
2014,10,22,16,52,3.20
2014,10,22,16,53,3.20
2014,10,22,16,54,3.20
2014,10,22,16,55,3.20
2014,10,22,16,56,3.20
2014,10,22,16,57,1.60
2014,10,22,16,58,1.60
2014,10,22,16,59,1.60
2014,10,22,17,00,3.20
2014,10,22,17,01,4.80
2014,10,22,17,02,3.20
2014,10,22,17,03,3.20
2014,10,22,17,04,1.60
2014,10,22,17,05,3.20
2014,10,22,17,06,3.20
2014,10,22,17,07,4.80
2014,10,22,17,08,4.80
2014,10,22,17,09,4.80
2014,10,22,17,10,4.80
2014,10,22,17,11,4.80
2014,10,22,17,12,3.20
2014,10,22,17,13,3.20
2014,10,22,17,14,3.20
2014,10,22,17,15,1.60
2014,10,22,17,16,3.20
2014,10,22,17,17,4.80
2014,10,22,17,18,3.20
2014,10,22,17,19,3.20
2014,10,22,17,20,3.20
2014,10,22,17,21,3.20
2014,10,22,17,22,4.80
2014,10,22,17,23,4.80
2014,10,22,17,24,4.80
2014,10,22,17,25,4.80
2014,10,22,17,26,4.80
2014,10,22,17,27,3.20
2014,10,22,17,28,3.20
2014,10,22,17,29,4.80
2014,10,22,17,30,4.80
2014,10,22,17,31,3.20
2014,10,22,17,32,3.20
2014,10,22,17,33,4.80
2014,10,22,17,34,4.80
2014,10,22,17,35,4.80
2014,10,22,17,36,3.20
2014,10,22,17,37,3.20
2014,10,22,17,38,4.80
2014,10,22,17,39,4.80
2014,10,22,17,40,4.80
2014,10,22,17,41,4.80
2014,10,22,17,42,3.20
2014,10,22,17,43,4.80
2014,10,22,17,44,4.80
2014,10,22,17,45,4.80
2014,10,22,17,46,4.80
2014,10,22,17,47,3.20
2014,10,22,17,48,4.80
2014,10,22,17,49,6.40
2014,10,22,17,50,6.40
2014,10,22,17,51,6.40
2014,10,22,17,52,4.80
2014,10,22,17,53,6.40
2014,10,22,17,54,4.80
2014,10,22,17,55,8.10
2014,10,22,17,56,6.40
2014,10,22,17,57,6.40